Miscellaneous Local Product
Issued by NWS Hastings, NE

Home | Current Version | Previous Version | Text Only | Print | Product List | Glossary Off
Versions: 1 2 3 4 5 6 7 8 9 10 11 12 13 14 15 16 17 18 19 20 21 22 23 24 25 26 27 28 29 30 31 32 33 34 35 36 37 38 39 40 41 42 43 44 45 46 47 48 49 50

000
AXUS43 KGID 151802
MISGRI

GID CWA HOURLY WEATHER ROUNDUP
NATIONAL WEATHER SERVICE HASTINGS NE
100 PM CDT MON SEP 15 2014

NOTE: "FAIR" INDICATES FEW OR NO CLOUDS BELOW 12,000 FEET WITH NO
SIGNIFICANT WEATHER AND/OR OBSTRUCTIONS TO VISIBILITY.

...SOUTH CENTRAL NEBRASKA...

CITY           SKY/WX    TMP DP  RH WIND       PRES   REMARKS
GRAND ISLAND   SUNNY     65  43  44 N12G28    30.27S
HASTINGS       MOSUNNY   63  45  51 N16       30.27R
KEARNEY        SUNNY     63  45  51 N15       30.29S
ORD            SUNNY     62  43  49 N12G21    30.29R
YORK           MOSUNNY   63  48  59 NE16G25   30.26R
AURORA         SUNNY     64  42  45 N13G22    30.26S
LEXINGTON      SUNNY     62  45  53 N10G18    30.29F
HOLDREGE       SUNNY     62  46  57 NE12G17   30.28S
HEBRON         SUNNY     66  48  51 N14G22    30.23R

...NEBRASKA PANHANDLE...

CITY           SKY/WX    TMP DP  RH WIND       PRES   REMARKS
CHADRON        SUNNY     61  43  51 SW7       30.28F
ALLIANCE       SUNNY     59  42  53 VRB3      30.31F
SCOTTSBLUFF    SUNNY     60  45  57 SE9       30.31F
SIDNEY         SUNNY     60  42  51 SE7       30.34F

...WESTERN AND NORTH CENTRAL NEBRASKA...

CITY           SKY/WX    TMP DP  RH WIND       PRES   REMARKS
VALENTINE      SUNNY     61  35  37 NE8       30.31F
AINSWORTH      SUNNY     58  36  43 CALM      30.31S
ONEILL         SUNNY     60  40  48 N10G21    30.30S
BROKEN BOW     SUNNY     62  40  44 N9        30.30R
IMPERIAL       SUNNY     61  42  49 NE9       30.32F
NORTH PLATTE   SUNNY     62  40  44 VRB7      30.31S
MCCOOK         SUNNY     65  46  50 NE10G22   30.30F

...EASTERN NEBRASKA...

CITY           SKY/WX    TMP DP  RH WIND       PRES   REMARKS
NORFOLK        MOSUNNY   60  44  55 NE16G22   30.27R
SO SIOUX CITY  PTSUNNY   61  44  53 N12G20    30.26S
TEKAMAH        PTSUNNY   63  47  55 N18       30.25R
ALBION         SUNNY     59  43  55 N15       30.28S
OMAHA EPPLEY   PTSUNNY   63  49  60 N14       30.22R
OFFUTT AFB     PTSUNNY   61  53  74 N12       30.22R
MILLARD        PTSUNNY   62  50  64 N7G18     30.22R
LINCOLN        PTSUNNY   63  49  60 N23       30.24R
NEBRASKA CITY  PTSUNNY   62  47  56 N14       30.21R
BEATRICE       SUNNY     66  51  58 N18       30.21R
FALLS CITY     CLOUDY    64  55  72 N12G24    30.17R

...NORTHERN KANSAS...

CITY           SKY/WX    TMP DP  RH WIND       PRES   REMARKS
GOODLAND       CLOUDY    57  49  74 NE13      30.33S
HILL CITY      CLOUDY    66  50  56 N18       30.27S
NORTON         CLEAR     64  45  48 N15G22    30.27S
PHILLIPSBURG   SUNNY     66  48  52 N14       30.26R
SMITH CENTER   SUNNY     64  50  59 N18G26    30.25R
BELOIT         SUNNY     68  54  60 N17G24    30.21R
HAYS           MOSUNNY   66  54  63 N22G28    30.23R
RUSSELL        CLOUDY    67  55  65 NE18      30.20S
CONCORDIA      SUNNY     68  55  63 N15       30.20R
SALINA         CLOUDY    67  59  75 N16G22    30.18R
TOPEKA         CLOUDY    69  64  84 N13       30.14R



USA.gov is the U.S. government's official web portal to all federal, state and local government web resources and services.